Regional Weather Roundup
Issued by NWS

Home | Current Version | Previous Version | Graphics & Text | Print | Product List | Glossary On
Versions: 1 2 3 4 5 6 7 8 9 10 11 12 13 14 15 16 17 18 19 20 21 22 23 24 25 26 27 28 29 30 31 32 33 34 35 36 37 38 39 40 41 42 43 44 45 46 47 48 49 50
000
ASUS43 KLOT 220400
RWRIL

ILLINOIS REGIONAL WEATHER ROUNDUP
NATIONAL WEATHER SERVICE CHICAGO/ROMEOVILLE IL
1000 PM CST SUN DEC 21 2014

NOTE: "FAIR" INDICATES FEW OR NO CLOUDS BELOW 12,000 FEET WITH NO
SIGNIFICANT WEATHER AND/OR OBSTRUCTIONS TO VISIBILITY.

* THESE STATIONS ARE NOT UNDER NWS QUALITY CONTROL. THEY ALSO MAY NOT
  REPORT WEATHER SUCH AS PRECIPITATION OR FOG.

ILZ001-002-007-009-015-016-024-220500-
NORTHWEST ILLINOIS

CITY           SKY/WX    TMP DP  RH WIND       PRES   REMARKS
MOLINE         CLOUDY    36  31  82 SE16      29.92F WCI  26
STERLING*      CLOUDY    36  28  75 SE12      29.97S WCI  27
$$

ILZ003-004-008-010-011-017-018-220500-
NORTH CENTRAL ILLINOIS

CITY           SKY/WX    TMP DP  RH WIND       PRES   REMARKS
ROCKFORD       CLOUDY    36  29  75 S12       30.01S WCI  28
$$

ILZ005-006-012>014-019>023-220500-
NORTHEAST ILLINOIS

CITY           SKY/WX    TMP DP  RH WIND       PRES   REMARKS
CHICAGO-OHARE  MOCLDY    34  28  79 S12       30.03F WCI  25
CHICAGO-MIDWAY CLOUDY    35  28  75 SE9       30.04F WCI  28
AURORA         CLOUDY    34  28  79 SE10      30.02F WCI  26
WAUKEGAN       MOCLDY    34  29  82 SE13      30.02F WCI  25
DUPAGE AIRPORT MOCLDY    33  28  81 S10       30.01F WCI  25
WHEELING       MOCLDY    34  28  79 S10       30.04F WCI  26
NORTHERLY ISL    N/A     34  28  79 SE14        N/A  WCI  25
$$

LMZ740>746-220500-
SOUTHERN LAKE MICHIGAN

STATION/POSITION SKY/WX   TEMP    WIND        PRES    VSBY  WAVE
                          AIR SEA DIR/SP/G                  HT/PER
                          (F)     (DEG/KT/KT) (MB)    (MI)  (FT/S)
WAUKEGAN HARBOR            35     150/ 22/ 25   N/A
HARRISON CRIB              34     150/ 20/ 27   N/A
BURNHAM HARBOR             34     150/ 13/ 15   N/A
CALUMET HARBOR             34     140/  9/ 12 1016.6F
$$

ILZ025>027-034>036-040-047-049-050-058-095>099-220500-
WEST-CENTRAL ILLINOIS

CITY           SKY/WX    TMP DP  RH WIND       PRES   REMARKS
QUINCY         CLOUDY    40  33  76 S10       29.91S
$$

ILZ028>032-037-038-041>044-048-051>054-059>061-220500-
CENTRAL ILLINOIS

CITY           SKY/WX    TMP DP  RH WIND       PRES   REMARKS
DECATUR        CLOUDY    35  30  82 SE12      30.01F WCI  27
PEORIA         LGT RAIN  37  30  75 SE9       29.98F WCI  30
SPRINGFIELD    CLOUDY    39  30  70 SE14G24   29.97F WCI  31
TAYLORVILLE    NOT AVBL
$$

ILZ033-039-045-046-055>057-062-063-220500-
EAST-CENTRAL ILLINOIS

CITY           SKY/WX    TMP DP  RH WIND       PRES   REMARKS
CHAMPAIGN      CLOUDY    31  28  89 SE10      30.03F FOG     WCI  22
MATTOON        PTCLDY    31  27  85 SE8       30.03F WCI  23
$$

ILZ079-100>102-220500-
SOUTHWEST ILLINOIS

CITY           SKY/WX    TMP DP  RH WIND       PRES   REMARKS
ALTON          CLOUDY    39  32  75 SE9       29.97F WCI  33
BELLEVILLE     CLOUDY    40  34  78 SE6       29.97F
CAHOKIA*       CLOUDY    42  33  70 SE10      29.97F
$$

ILZ064>066-069>071-074>076-080>082-084>086-088>090-092>094-220500-
SOUTH-CENTRAL ILLINOIS

CITY           SKY/WX    TMP DP  RH WIND       PRES   REMARKS
CARBONDALE     CLOUDY    38  30  73 SE7       30.00F WCI  33
MT. VERNON     CLOUDY    36  27  69 E6        30.02S WCI  31
$$

ILZ067-068-072-073-078-083-087-091-220500-
SOUTHEAST ILLINOIS

CITY           SKY/WX    TMP DP  RH WIND       PRES   REMARKS
LAWRENCEVILLE  CLEAR     31  27  85 E6        30.06F WCI  25
$$

ABBREVIATIONS USED IN REMARKS
   TC - TEMPERATURE IN CELSIUS
  WCI - WIND CHILL INDEX
   HX - HEAT INDEX
  VSB - VISIBILITY
$$




USA.gov is the U.S. government's official web portal to all federal, state and local government web resources and services.